Dublin, Ireland

6:20 AM GMT on February 23, 2017 (GMT +0000)
Dublin International

Weather History for EIDW - December, 2012

Change the Weather History Date:

Tuesday, December 11, 2012

  Actual Average Record
Temperature  
Mean Temperature 34 °F -  
Max Temperature 41 °F 47 °F 57 °F (1998)
Min Temperature 26 °F 37 °F 26 °F (2008)
Degree Days  
Heating Degree Days 32    
Moisture  
Dew Point 30 °F    
Average Humidity 89    
Maximum Humidity 100    
Minimum Humidity 67    
Precipitation  
Precipitation 0.00 in 0.10 in - ()
Sea Level Pressure  
Sea Level Pressure 30.37 in    
Wind  
Wind Speed 5 mph ()    
Max Wind Speed 8 mph    
Max Gust Speed -    
Visibility 6.2 miles    
Events      
Averages and records for this station are not official NWS values.
T = Trace of Precipitation, MM = Missing Value Source: Averaged Metar Reports

Daily Weather History Graph

Daily Weather History Graph

Search for Another Location

Airport or City:

Trip Planner

Search our weather history database for the weather conditions in past years. The results will help you decide how hot, cold, wet, or windy it might be!

Date:

Astronomy

Dec. 11, 2012 Rise Set
Actual Time 8:30 AM GMT 4:05 PM GMT
Civil Twilight 7:48 AM GMT 4:48 PM GMT
Nautical Twilight 7:03 AM GMT 5:33 PM GMT
Astronomical Twilight 6:20 AM GMT 6:16 PM GMT
Moon 5:58 AM GMT (12/11) 2:41 PM GMT (12/11)
Length of Visible Light 9h 00m
Length of Day
7h 34m
Waning Crescent, 5% of the Moon is Illuminated
Dec 11
Waning Crescent
Dec 13
New
Dec 20
First Quarter
Dec 28
Full
Jan 5
Last Quarter

Hourly Weather History & Observations

Time (GMT) Temp. Windchill Dew Point Humidity Pressure Visibility Wind Dir Wind Speed Gust Speed Precip Events Conditions
12:00 AM 34 °F - 31 °F 82% 30.45 in 25 mi East 6.7 mph - -   Partly Cloudy
12:00 AM 33.8 °F 27.7 °F 30.2 °F 87% 30.42 in 6.2 mi East 6.9 mph - N/A   Scattered Clouds
12:30 AM 32.0 °F 24.8 °F 28.4 °F 87% 30.42 in 6.2 mi East 8.1 mph - N/A   Scattered Clouds
1:00 AM 32.0 °F 25.6 °F 30.2 °F 93% 30.42 in 6.2 mi ESE 6.9 mph - N/A   Scattered Clouds
1:30 AM 32.0 °F 24.8 °F 30.2 °F 93% 30.42 in 6.2 mi ESE 8.1 mph - N/A   Scattered Clouds
2:00 AM 37.4 °F 32.1 °F 32.0 °F 81% 30.42 in 6.2 mi ESE 6.9 mph - N/A   Scattered Clouds
2:30 AM 37.4 °F 31.4 °F 32.0 °F 81% 30.42 in 6.2 mi ESE 8.1 mph - N/A   Scattered Clouds
3:00 AM 32.0 °F 24.8 °F 28.4 °F 87% 30.42 in 6.2 mi ESE 8.1 mph - N/A   Partly Cloudy
3:30 AM 32.0 °F 25.6 °F 28.4 °F 87% 30.42 in 6.2 mi ESE 6.9 mph - N/A   Partly Cloudy
4:00 AM 30.2 °F 24.3 °F 28.4 °F 93% 30.42 in 6.2 mi ESE 5.8 mph - N/A   Partly Cloudy
4:30 AM 30.2 °F 23.4 °F 28.4 °F 93% 30.42 in 6.2 mi ESE 6.9 mph - N/A   Partly Cloudy
5:00 AM 28.4 °F 24.6 °F 28.4 °F 100% 30.42 in 6.2 mi SE 3.5 mph - N/A   Partly Cloudy
5:30 AM 28.4 °F - 28.4 °F 100% 30.42 in 6.2 mi Calm Calm - N/A   Partly Cloudy
6:00 AM 29 °F - 28 °F 97% 30.44 in 25 mi North 2.2 mph - -   Scattered Clouds
6:00 AM 28.4 °F - 28.4 °F 100% 30.42 in 6.2 mi Calm Calm - N/A   Partly Cloudy
6:30 AM 26.6 °F 22.6 °F 26.6 °F 100% 30.42 in 6.2 mi Variable 3.5 mph - N/A   Partly Cloudy
7:00 AM 26.6 °F - 26.6 °F 100% 30.42 in 6.2 mi Variable 2.3 mph - N/A   Partly Cloudy
7:30 AM 28.4 °F 24.6 °F 28.4 °F 100% 30.42 in 6.2 mi SSE 3.5 mph - N/A   Scattered Clouds
8:00 AM 28.4 °F - 28.4 °F 100% 30.42 in 6.2 mi South 2.3 mph - N/A   Partly Cloudy
8:30 AM 28.4 °F 24.6 °F 28.4 °F 100% 30.42 in 6.2 mi SE 3.5 mph - N/A   Partly Cloudy
9:00 AM 30.2 °F 26.7 °F 30.2 °F 100% 30.42 in 6.2 mi Variable 3.5 mph - N/A   Partly Cloudy
9:30 AM 30.2 °F - 30.2 °F 100% 30.42 in 6.2 mi SE 2.3 mph - N/A   Scattered Clouds
10:00 AM 32.0 °F - 30.2 °F 93% 30.42 in 6.2 mi North 1.2 mph - N/A   Scattered Clouds
10:30 AM 33.8 °F - 32.0 °F 93% 30.42 in 6.2 mi Calm Calm - N/A   Scattered Clouds
11:00 AM 35.6 °F 32.8 °F 33.8 °F 93% 30.42 in 6.2 mi ESE 3.5 mph - N/A   Scattered Clouds
11:30 AM 39.2 °F 35.9 °F 35.6 °F 87% 30.39 in 6.2 mi SE 4.6 mph - N/A   Scattered Clouds
12:00 PM 41 °F - 34 °F 67% 30.42 in 31 mi SSE 4.5 mph - -   Scattered Clouds
12:00 PM 41.0 °F 38.0 °F 33.8 °F 76% 30.39 in 6.2 mi SSE 4.6 mph - N/A   Scattered Clouds
12:30 PM 41.0 °F 38.0 °F 33.8 °F 76% 30.39 in 6.2 mi SSE 4.6 mph - N/A   Scattered Clouds
1:00 PM 41.0 °F 36.4 °F 33.8 °F 76% 30.36 in 6.2 mi SSE 6.9 mph - N/A   Scattered Clouds
1:30 PM 41.0 °F 36.4 °F 32.0 °F 70% 30.36 in 6.2 mi SSE 6.9 mph - N/A   Mostly Cloudy
2:00 PM 41.0 °F 37.1 °F 32.0 °F 70% 30.36 in 6.2 mi SSE 5.8 mph - N/A   Mostly Cloudy
2:30 PM 41.0 °F 37.1 °F 32.0 °F 70% 30.36 in 6.2 mi SSE 5.8 mph - N/A   Mostly Cloudy
3:00 PM 39.2 °F 35.9 °F 32.0 °F 75% 30.36 in 6.2 mi SSE 4.6 mph - N/A   Mostly Cloudy
3:30 PM 39.2 °F 35.0 °F 32.0 °F 75% 30.33 in 6.2 mi SSE 5.8 mph - N/A   Mostly Cloudy
4:00 PM 37.4 °F 33.8 °F 30.2 °F 75% 30.33 in 6.2 mi SE 4.6 mph - N/A   Mostly Cloudy
4:30 PM 33.8 °F 29.6 °F 28.4 °F 81% 30.33 in 6.2 mi SE 4.6 mph - N/A   Mostly Cloudy
5:00 PM 32.0 °F 26.4 °F 30.2 °F 93% 30.33 in 6.2 mi SE 5.8 mph - N/A   Mostly Cloudy
5:30 PM 32.0 °F 26.4 °F 28.4 °F 87% 30.33 in 6.2 mi SSE 5.8 mph - N/A   Mostly Cloudy
6:00 PM 32 °F - 30 °F 89% 30.34 in 31 mi SE 4.5 mph - -   Scattered Clouds
6:00 PM 32.0 °F 27.5 °F 30.2 °F 93% 30.30 in 6.2 mi SE 4.6 mph - N/A   Mostly Cloudy
6:30 PM 32.0 °F 27.5 °F 30.2 °F 93% 30.30 in 6.2 mi SSE 4.6 mph - N/A   Mostly Cloudy
7:00 PM 32.0 °F - 30.2 °F 93% 30.30 in 6.2 mi South 2.3 mph - N/A   Mostly Cloudy
7:30 PM 32.0 °F - 30.2 °F 93% 30.30 in 6.2 mi Calm Calm - N/A   Mostly Cloudy
8:00 PM 33.8 °F 30.8 °F 32.0 °F 93% 30.27 in 6.2 mi South 3.5 mph - N/A   Mostly Cloudy
8:30 PM 35.6 °F - 32.0 °F 87% 30.27 in 6.2 mi South 2.3 mph - N/A   Mostly Cloudy
9:00 PM 35.6 °F - 32.0 °F 87% 30.27 in 6.2 mi Calm Calm - N/A   Mostly Cloudy
9:30 PM 32.0 °F 28.7 °F 30.2 °F 93% 30.27 in 6.2 mi South 3.5 mph - N/A   Scattered Clouds
10:00 PM 32.0 °F 28.7 °F 30.2 °F 93% 30.24 in 6.2 mi Variable 3.5 mph - N/A   Scattered Clouds
10:30 PM 33.8 °F 30.8 °F 32.0 °F 93% 30.24 in 6.2 mi South 3.5 mph - N/A   Scattered Clouds
11:00 PM 33.8 °F 28.6 °F 32.0 °F 93% 30.24 in 6.2 mi SSE 5.8 mph - N/A   Scattered Clouds
11:30 PM 33.8 °F 29.6 °F 30.2 °F 87% 30.24 in 6.2 mi SSE 4.6 mph - N/A   Scattered Clouds